FW8286 Weather Reports


Display with metric or nautical units.
time (UTC)temp
F
wind
direction
speed
MPH
gust
MPH
rain 1hr
in
rain 24hr
in
rain mn
in
humidity
%
barometer
mb
20260510130528 50 9 6.0 13.0 0.00 0.00 0.00 72 1017.9
20260510130040 50 26 6.0 11.0 0.00 0.00 0.00 73 1017.7
20260510125527 50 23 4.0 10.0 0.00 0.00 0.00 75 1017.7
20260510125031 50 39 6.0 11.0 0.00 0.00 0.00 76 1017.5
20260510124552 50 9 7.0 11.0 0.00 0.00 0.00 75 1017.4
20260510124028 49 15 6.0 11.0 0.00 0.00 0.00 76 1017.3
20260510123530 49 5 7.0 11.0 0.00 0.00 0.00 75 1017.3
20260510123042 49 17 7.0 11.0 0.00 0.00 0.00 77 1017.3
20260510122527 49 360 7.0 12.0 0.00 0.00 0.00 78 1017.1
20260510122028 48 355 8.0 12.0 0.00 0.00 0.00 79 1017.0
20260510121541 48 19 5.0 11.0 0.00 0.00 0.00 81 1016.8
20260510121028 47 351 6.0 12.0 0.00 0.00 0.00 81 1016.8
20260510120531 47 5 4.0 12.0 0.00 0.00 0.00 81 1016.8
20260510120042 47 5 7.0 12.0 0.00 0.00 0.00 81 1016.8
20260510115527 47 348 6.0 11.0 0.00 0.00 0.00 81 1016.6
20260510115029 47 345 5.0 11.0 0.00 0.00 0.00 82 1016.6
20260510114541 47 324 6.0 10.0 0.00 0.00 0.00 83 1016.5
20260510114027 47 355 4.0 11.0 0.00 0.00 0.00 83 1016.4
20260510113529 47 355 6.0 11.0 0.00 0.00 0.00 83 1016.2
20260510113045 47 336 6.0 10.0 0.00 0.00 0.00 83 1016.0
20260510112528 47 337 5.0 10.0 0.00 0.00 0.00 84 1016.0
20260510112028 47 355 5.0 9.0 0.00 0.00 0.00 85 1015.8
20260510111553 47 13 5.0 9.0 0.00 0.00 0.00 85 1015.8
20260510111027 47 352 4.0 9.0 0.00 0.00 0.00 85 1015.8
20260510110526 47 346 5.0 9.0 0.00 0.00 0.00 85 1015.6
20260510110041 47 5 5.0 10.0 0.00 0.00 0.00 85 1015.4
20260510105528 47 360 5.0 11.0 0.00 0.00 0.00 85 1015.4
20260510105027 47 352 6.0 11.0 0.00 0.00 0.00 85 1015.2
20260510104554 47 343 5.0 10.0 0.00 0.00 0.00 86 1015.2
20260510104026 47 350 5.0 10.0 0.00 0.00 0.00 86 1015.0
20260510103527 47 347 4.0 10.0 0.00 0.00 0.00 86 1014.8
20260510103038 47 5 4.0 10.0 0.00 0.00 0.00 86 1014.8
20260510102527 47 355 5.0 10.0 0.00 0.00 0.00 86 1014.4
20260510102026 47 355 5.0 10.0 0.00 0.00 0.00 87 1014.1
20260510101545 46 350 5.0 10.0 0.00 0.00 0.00 88 1014.1
20260510101028 46 343 4.0 8.0 0.00 0.00 0.00 89 1014.2
20260510100530 46 348 3.0 8.0 0.00 0.00 0.00 89 1014.2
20260510100042 46 351 2.0 5.0 0.00 0.00 0.00 90 1014.1
20260510095527 45 355 3.0 5.0 0.00 0.00 0.00 90 1013.9
20260510095028 45 355 2.0 5.0 0.00 0.00 0.00 90 1014.0
20260510094543 45 9 1.0 3.0 0.00 0.00 0.00 90 1013.9
20260510094027 45 0 0.0 2.0 0.00 0.00 0.00 90 1013.9
20260510093527 45 9 0.0 2.0 0.00 0.00 0.00 90 1014.0
20260510093041 44 0 0.0 2.0 0.00 0.00 0.00 90 1013.8
20260510092527 44 9 1.0 2.0 0.00 0.00 0.00 90 1013.8
20260510092027 44 9 0.0 2.0 0.00 0.00 0.00 89 1013.6
20260510091547 44 0 0.0 2.0 0.00 0.00 0.00 89 1013.6
20260510091026 44 9 0.0 2.0 0.00 0.00 0.00 89 1013.5
20260510090528 44 0 0.0 2.0 0.00 0.00 0.00 89 1013.4
20260510090046 44 9 1.0 2.0 0.00 0.00 0.00 89 1013.3
20260510085528 44 9 1.0 2.0 0.00 0.00 0.00 88 1013.3
20260510085028 44 9 1.0 2.0 0.00 0.00 0.00 88 1013.2
20260510084543 44 9 1.0 3.0 0.00 0.00 0.00 88 1013.1
20260510084028 45 9 1.0 3.0 0.00 0.00 0.00 88 1013.0
20260510083532 45 9 1.0 2.0 0.00 0.00 0.00 88 1012.9
20260510083041 45 0 0.0 2.0 0.00 0.00 0.00 88 1013.0
20260510082527 45 9 0.0 2.0 0.00 0.00 0.00 87 1012.8
20260510082027 45 9 1.0 2.0 0.00 0.00 0.00 87 1012.9
20260510081545 46 9 0.0 2.0 0.00 0.00 0.00 87 1012.9
20260510081029 46 0 0.0 3.0 0.00 0.00 0.00 87 1012.8
20260510080530 46 9 1.0 3.0 0.00 0.00 0.00 87 1012.9
20260510080041 46 9 1.0 3.0 0.00 0.00 0.00 86 1012.8
20260510075527 46 9 1.0 3.0 0.00 0.00 0.00 86 1012.7
20260510075027 47 9 1.0 2.0 0.00 0.00 0.00 84 1012.6
20260510074543 47 9 1.0 2.0 0.00 0.00 0.00 84 1012.5
20260510074027 47 9 0.0 1.0 0.00 0.00 0.00 83 1012.3
20260510073530 47 0 0.0 1.0 0.00 0.00 0.00 82 1012.2
20260510073044 48 0 0.0 3.0 0.00 0.00 0.00 81 1012.1
20260510072528 48 0 0.0 3.0 0.00 0.00 0.00 81 1011.9
20260510072027 48 9 1.0 5.0 0.00 0.00 0.00 81 1012.0
20260510071542 48 9 2.0 7.0 0.00 0.00 0.00 80 1011.9
20260510071027 49 9 3.0 7.0 0.00 0.00 0.00 80 1011.8
20260510070530 49 355 3.0 8.0 0.00 0.00 0.00 80 1011.8
20260510070043 49 9 3.0 8.0 0.00 0.00 0.00 80 1011.9
20260510065531 49 355 4.0 9.0 0.00 0.00 0.00 80 1011.8
20260510065030 50 349 5.0 11.0 0.00 0.00 0.00 79 1011.6
20260510064540 50 348 6.0 13.0 0.00 0.00 0.00 80 1011.6
20260510064028 50 350 7.0 14.0 0.00 0.00 0.00 80 1011.7
20260510063528 50 351 7.0 15.0 0.00 0.00 0.00 81 1011.5
20260510063046 51 355 9.0 15.0 0.00 0.00 0.00 81 1011.4
20260510062528 51 360 10.0 20.0 0.00 0.00 0.00 82 1011.3
20260510062028 52 331 9.0 20.0 0.00 0.00 0.00 83 1011.2
20260510061545 52 360 12.0 20.0 0.00 0.00 0.00 85 1011.1
20260510061027 53 28 11.0 20.0 0.00 0.00 0.00 87 1010.9
20260510060528 54 332 7.0 15.0 0.00 0.00 0.00 89 1010.9
20260510060051 54 314 3.0 15.0 0.00 0.00 0.00 90 1010.8
20260510055529 54 317 8.0 15.0 0.00 0.00 0.00 90 1010.5
20260510055028 54 323 2.0 5.0 0.00 0.00 0.00 88 1010.6
20260510054545 54 285 1.0 3.0 0.00 0.00 0.00 88 1010.4
20260510054028 54 0 0.0 1.0 0.00 0.00 0.00 88 1010.3
20260510053527 55 0 0.0 2.0 0.00 0.00 0.00 88 1010.3
20260510053042 55 0 0.0 5.0 0.00 0.00 0.00 87 1010.2
20260510052527 55 0 0.0 6.0 0.00 0.00 0.00 87 1010.3
20260510052027 55 286 2.0 10.0 0.00 0.00 0.00 88 1010.0
20260510051559 55 278 5.0 13.0 0.00 0.00 0.00 88 1010.0
20260510051028 55 288 8.0 13.0 0.00 0.00 0.00 90 1009.8
20260510050527 54 250 5.0 12.0 0.00 0.00 0.00 90 1009.8
20260510050042 54 326 4.0 10.0 0.00 0.00 0.00 90 1009.9
20260510045531 54 284 1.0 6.0 0.00 0.00 0.00 89 1009.7
20260510045027 54 190 3.0 7.0 0.00 0.00 0.00 89 1009.4
20260510044538 54 177 3.0 8.0 0.00 0.00 0.00 90 1009.4
20260510044030 53 189 5.0 8.0 0.00 0.00 0.00 90 1009.2
20260510043528 53 169 5.0 7.0 0.00 0.00 0.00 90 1009.1
20260510043109 53 181 3.0 5.0 0.00 0.00 0.00 90 1009.1
20260510042528 53 184 3.0 5.0 0.00 0.00 0.00 88 1009.1
20260510042027 53 185 3.0 5.0 0.00 0.00 0.00 88 1009.0
20260510041549 53 186 3.0 5.0 0.00 0.00 0.00 89 1009.1
20260510041030 53 178 4.0 5.0 0.00 0.00 0.00 88 1009.0
20260510040530 53 185 3.0 5.0 0.00 0.00 0.00 88 1009.0
20260510040043 54 186 3.0 5.0 0.00 0.00 0.00 88 1008.9
20260510035528 54 186 3.0 5.0 0.00 0.00 0.00 87 1009.0
20260510035032 54 187 2.0 4.0 0.00 0.00 0.00 87 1008.9
20260510034545 54 187 1.0 3.0 0.00 0.00 0.00 87 1008.9
20260510034030 55 187 1.0 4.0 0.00 0.00 0.00 86 1008.8
20260510033527 55 187 2.0 6.0 0.00 0.00 0.00 86 1008.9
20260510033042 56 186 3.0 6.0 0.00 0.00 0.00 86 1008.9
20260510032528 56 198 3.0 7.0 0.00 0.00 0.00 85 1008.9
20260510032027 56 200 4.0 7.0 0.00 0.00 0.00 86 1008.9
20260510031619 57 200 3.0 6.0 0.00 0.00 0.00 86 1008.9
20260510031030 57 199 3.0 8.0 0.00 0.00 0.00 85 1008.9
20260510030531 57 189 4.0 8.0 0.00 0.00 0.00 84 1008.8
20260510030041 57 223 1.0 6.0 0.00 0.00 0.00 84 1008.7
20260510025528 58 314 1.0 7.0 0.00 0.00 0.00 84 1009.1
20260510025030 58 313 3.0 7.0 0.00 0.00 0.00 83 1008.9
20260510024545 58 240 2.0 11.0 0.00 0.00 0.00 82 1008.9
20260510024027 58 0 1.0 11.0 0.00 0.00 0.00 82 1008.8
20260510023527 58 210 5.0 12.0 0.00 0.00 0.00 83 1008.8
20260510023048 58 211 7.0 12.0 0.00 0.00 0.00 84 1009.0
20260510022529 57 212 3.0 7.0 0.00 0.00 0.00 85 1009.2
20260510022031 57 207 2.0 7.0 0.00 0.00 0.00 85 1009.1
20260510021546 57 215 3.0 7.0 0.00 0.00 0.00 85 1009.3
20260510021030 57 239 1.0 9.0 0.00 0.00 0.00 85 1008.8
20260510020527 57 248 3.0 15.0 0.00 0.00 0.00 86 1008.9
20260510020043 57 282 8.0 15.0 0.00 0.00 0.00 87 1009.0
20260510015530 56 254 3.0 8.0 0.00 0.00 0.00 88 1009.3
20260510015029 56 248 2.0 6.0 0.00 0.00 0.00 89 1009.2
20260510014541 55 195 4.0 6.0 0.00 0.00 0.00 89 1008.5
20260510014028 55 180 4.0 6.0 0.00 0.00 0.00 89 1008.1
20260510013532 55 182 3.0 6.0 0.00 0.00 0.00 88 1008.1
20260510013042 55 183 3.0 6.0 0.00 0.00 0.00 88 1008.0
20260510012528 55 192 3.0 4.0 0.00 0.00 0.00 87 1008.0
20260510012030 56 193 3.0 4.0 0.00 0.00 0.00 87 1007.9
20260510011554 56 208 3.0 4.0 0.00 0.00 0.00 88 1007.9
20260510011030 56 209 2.0 4.0 0.00 0.00 0.00 87 1007.9
20260510010528 56 221 2.0 4.0 0.00 0.00 0.00 87 1007.8
20260510005527 56 223 1.0 4.0 0.00 0.00 0.00 87 1007.7
20260510005027 56 223 1.0 5.0 0.00 0.00 0.00 86 1007.6
20260510004545 56 222 0.0 8.0 0.00 0.00 0.00 86 1007.5
20260510004032 56 222 1.0 8.0 0.00 0.00 0.00 86 1007.5
20260510003529 57 232 1.0 8.0 0.00 0.00 0.00 87 1007.5
20260510003042 57 237 2.0 8.0 0.00 0.00 0.00 87 1007.6
20260510002528 57 221 2.0 8.0 0.00 0.00 0.00 87 1007.7
20260510002031 57 241 1.0 9.0 0.00 0.00 0.00 87 1007.8
20260510001541 57 188 3.0 9.0 0.00 0.00 0.00 87 1007.8
20260510001028 56 192 2.0 8.0 0.00 0.00 0.00 88 1007.6
20260510000527 56 240 1.0 8.0 0.00 0.00 0.00 88 1007.7
20260510000050 56 209 3.0 8.0 0.00 0.00 0.00 88 1007.6
20260509235530 56 234 2.0 9.0 0.00 0.00 0.00 88 1007.7
20260509235030 56 229 3.0 9.0 0.00 0.00 0.00 89 1007.7
20260509234546 56 226 3.0 12.0 0.00 0.00 0.00 89 1007.6
20260509234029 56 204 4.0 12.0 0.00 0.00 0.00 89 1007.7
20260509233527 55 253 4.0 12.0 0.00 0.00 0.00 89 1007.9
20260509233047 55 240 4.0 15.0 0.00 0.00 0.00 89 1007.9
20260509232527 55 253 5.0 15.0 0.00 0.00 0.00 89 1007.7
20260509232027 55 261 6.0 15.0 0.00 0.00 0.00 89 1007.9
20260509231549 55 275 8.0 20.0 0.00 0.00 0.00 89 1007.9
20260509231029 56 267 11.0 20.0 0.00 0.00 0.00 88 1007.9
20260509230530 56 300 11.0 28.0 0.00 0.00 0.00 87 1007.6
20260509230041 57 323 15.0 35.0 0.00 0.00 0.00 85 1007.6
20260509225528 60 321 10.0 35.0 0.00 0.00 0.00 80 1006.5
20260509225029 62 286 16.0 35.0 0.00 0.00 0.00 74 1007.2
20260509224542 63 295 7.0 19.0 0.00 0.00 0.00 73 1006.4
20260509224028 64 254 7.0 19.0 0.00 0.00 0.00 69 1006.2
20260509223530 66 240 9.0 20.0 0.00 0.00 0.00 63 1006.2
20260509223047 68 225 12.0 27.0 0.00 0.00 0.00 63 1005.7
20260509222531 69 210 14.0 27.0 0.00 0.00 0.00 60 1005.5
20260509222029 69 241 14.0 23.0 0.00 0.00 0.00 60 1005.2
20260509221546 69 235 14.0 22.0 0.00 0.00 0.00 60 1005.2
20260509221030 69 198 10.0 25.0 0.00 0.00 0.00 60 1005.4
20260509220530 69 196 14.0 25.0 0.00 0.00 0.00 59 1005.4
20260509220048 69 211 12.0 26.0 0.00 0.00 0.00 58 1005.5
20260509215528 70 200 12.0 26.0 0.00 0.00 0.00 59 1005.4
20260509215025 70 218 15.0 26.0 0.00 0.00 0.00 57 1005.5
20260509214542 70 201 16.0 26.0 0.00 0.00 0.00 55 1005.3
20260509214025 70 218 12.0 25.0 0.00 0.00 0.00 59 1005.5
20260509213525 70 174 13.0 28.0 0.00 0.00 0.00 59 1005.2
20260509213057 70 192 18.0 28.0 0.00 0.00 0.00 58 1005.4
20260509212527 70 198 15.0 27.0 0.00 0.00 0.00 60 1005.2
20260509212028 70 165 17.0 28.0 0.00 0.00 0.00 59 1005.3
20260509211607 70 202 15.0 28.0 0.00 0.00 0.00 59 1005.2
20260509211028 70 196 16.0 25.0 0.00 0.00 0.00 60 1005.2
20260509210529 70 204 15.0 23.0 0.00 0.00 0.00 61 1005.4
20260509210041 70 211 14.0 21.0 0.00 0.00 0.00 61 1005.5
20260509205528 70 205 12.0 26.0 0.00 0.00 0.00 61 1005.7
20260509205025 70 210 15.0 26.0 0.00 0.00 0.00 61 1005.6
20260509204557 70 206 15.0 25.0 0.00 0.00 0.00 62 1005.9
20260509204028 70 221 14.0 23.0 0.00 0.00 0.00 61 1005.8
20260509203524 70 201 14.0 23.0 0.00 0.00 0.00 63 1005.8
20260509203052 70 202 11.0 25.0 0.00 0.00 0.00 62 1006.0
20260509202525 70 192 13.0 25.0 0.00 0.00 0.00 63 1006.0
20260509202025 70 188 12.0 23.0 0.00 0.00 0.00 64 1006.0
20260509201542 69 197 11.0 23.0 0.00 0.00 0.00 62 1006.1
20260509201024 69 187 14.0 23.0 0.00 0.00 0.00 63 1006.2
20260509200526 69 182 13.0 23.0 0.00 0.00 0.00 65 1006.3
20260509200042 69 214 13.0 23.0 0.00 0.00 0.00 63 1006.4
20260509195526 70 205 13.0 23.0 0.00 0.00 0.00 61 1006.4
20260509195025 69 168 14.0 26.0 0.00 0.00 0.00 63 1006.6
20260509194543 69 218 14.0 26.0 0.00 0.00 0.00 64 1006.7
20260509194024 69 200 13.0 24.0 0.00 0.00 0.00 64 1006.7
20260509193530 69 195 14.0 24.0 0.00 0.00 0.00 65 1006.8
20260509193047 69 199 10.0 21.0 0.00 0.00 0.00 66 1006.8
20260509192527 69 186 12.0 21.0 0.00 0.00 0.00 64 1006.8
20260509192027 68 202 12.0 21.0 0.00 0.00 0.00 65 1006.8
20260509191547 68 227 11.0 21.0 0.00 0.00 0.00 65 1006.9
20260509191030 68 222 11.0 21.0 0.00 0.00 0.00 66 1007.1
20260509190527 68 200 11.0 21.0 0.00 0.00 0.00 67 1007.0
20260509190047 68 219 14.0 22.0 0.00 0.00 0.00 65 1007.2
20260509185527 67 213 13.0 22.0 0.00 0.00 0.00 68 1007.4
20260509185027 67 200 11.0 21.0 0.00 0.00 0.00 69 1007.4
20260509184543 67 215 14.0 21.0 0.00 0.00 0.00 68 1007.5
20260509184027 67 200 13.0 23.0 0.00 0.00 0.00 69 1007.4
20260509183533 67 222 14.0 23.0 0.00 0.00 0.00 67 1007.5
20260509183042 67 204 12.0 21.0 0.00 0.00 0.00 71 1007.5
20260509182526 66 217 12.0 22.0 0.00 0.00 0.00 72 1007.6
20260509182026 66 211 16.0 23.0 0.00 0.00 0.00 68 1007.7
20260509181545 66 198 11.0 23.0 0.00 0.00 0.00 70 1007.5
20260509181029 66 192 13.0 24.0 0.00 0.00 0.00 69 1007.6
20260509180528 66 210 14.0 24.0 0.00 0.00 0.00 71 1007.4
20260509180042 65 213 13.0 22.0 0.00 0.00 0.00 70 1007.3
20260509175527 66 213 9.0 19.0 0.00 0.00 0.00 70 1007.4
20260509175027 66 186 13.0 19.0 0.00 0.00 0.00 69 1007.4
20260509174542 66 183 9.0 17.0 0.00 0.00 0.00 72 1007.3
20260509174030 66 209 9.0 20.0 0.00 0.00 0.00 71 1007.5
20260509173527 65 229 9.0 26.0 0.00 0.00 0.00 73 1007.4
20260509173043 65 180 11.0 26.0 0.00 0.00 0.00 73 1007.5
20260509172530 65 201 11.0 23.0 0.00 0.00 0.00 73 1007.6
20260509172030 65 205 12.0 19.0 0.00 0.00 0.00 73 1007.7
20260509171541 64 213 11.0 19.0 0.00 0.00 0.00 72 1007.8
20260509171029 64 224 9.0 18.0 0.00 0.00 0.00 72 1007.8
20260509170526 64 236 9.0 18.0 0.00 0.00 0.00 74 1007.9
20260509170041 65 237 8.0 17.0 0.00 0.00 0.00 73 1007.8
20260509165530 65 248 5.0 14.0 0.00 0.00 0.00 76 1007.8
20260509165030 64 254 5.0 16.0 0.00 0.00 0.00 75 1007.7
20260509164548 64 216 10.0 16.0 0.00 0.00 0.00 73 1007.7
20260509164027 63 193 8.0 16.0 0.00 0.00 0.00 75 1007.6
20260509163527 63 199 9.0 19.0 0.00 0.00 0.00 75 1007.6
20260509163056 62 219 11.0 19.0 0.00 0.00 0.00 75 1007.5
20260509162527 62 200 9.0 16.0 0.00 0.00 0.00 75 1007.5
20260509162027 62 231 10.0 16.0 0.00 0.00 0.00 74 1007.7
20260509161542 62 186 9.0 17.0 0.00 0.00 0.00 74 1007.8
20260509161031 63 184 9.0 17.0 0.00 0.00 0.00 74 1007.9
20260509160528 62 197 10.0 17.0 0.00 0.00 0.00 77 1008.1
20260509160041 62 196 9.0 15.0 0.00 0.00 0.00 77 1008.1
20260509155527 62 223 6.0 12.0 0.00 0.00 0.00 77 1008.1
20260509155031 62 248 4.0 14.0 0.00 0.00 0.00 78 1008.2
20260509154541 61 221 6.0 16.0 0.00 0.00 0.00 77 1008.3
20260509154031 62 204 9.0 16.0 0.00 0.00 0.00 77 1008.2
20260509153534 62 221 9.0 16.0 0.00 0.00 0.00 76 1008.2
20260509153041 62 213 5.0 12.0 0.00 0.00 0.00 79 1008.3
20260509152527 62 234 4.0 15.0 0.00 0.00 0.00 79 1008.2
20260509152027 61 223 7.0 15.0 0.00 0.00 0.00 79 1008.2
20260509151547 60 230 7.0 16.0 0.00 0.00 0.00 80 1008.2
20260509151027 60 212 9.0 16.0 0.00 0.00 0.00 78 1008.1
20260509150533 61 234 10.0 16.0 0.00 0.00 0.00 79 1007.9
20260509150046 61 226 7.0 15.0 0.00 0.00 0.00 82 1008.1
20260509145531 60 217 8.0 16.0 0.00 0.00 0.00 80 1008.1
20260509145027 61 211 10.0 16.0 0.00 0.00 0.00 83 1008.0
20260509144544 60 202 10.0 15.0 0.00 0.00 0.00 81 1008.2
20260509144026 60 205 4.0 10.0 0.00 0.00 0.00 84 1008.1
20260509143527 60 266 4.0 14.0 0.00 0.00 0.00 83 1008.0
20260509143047 60 211 7.0 16.0 0.00 0.00 0.00 83 1008.1
20260509142527 60 217 8.0 16.0 0.00 0.00 0.00 82 1008.0
20260509142028 59 196 9.0 16.0 0.00 0.00 0.00 83 1007.9
20260509141544 59 238 7.0 12.0 0.00 0.00 0.00 85 1008.0
20260509141029 59 221 3.0 14.0 0.00 0.00 0.00 87 1008.0
20260509140527 59 209 4.0 14.0 0.00 0.00 0.00 89 1007.8
20260509140046 57 220 6.0 12.0 0.00 0.00 0.00 88 1007.9
20260509135530 57 215 8.0 14.0 0.00 0.00 0.00 89 1008.1
20260509135026 57 201 4.0 14.0 0.00 0.00 0.00 90 1008.1
20260509134551 56 213 7.0 13.0 0.00 0.00 0.00 89 1008.1
20260509134026 56 205 5.0 10.0 0.00 0.00 0.00 90 1008.2
20260509133528 56 206 6.0 11.0 0.00 0.00 0.00 90 1008.2
20260509133057 56 247 6.0 11.0 0.00 0.00 0.00 90 1008.2
20260509132527 56 194 6.0 10.0 0.00 0.00 0.00 91 1008.2
20260509132026 56 188 5.0 10.0 0.00 0.00 0.00 91 1008.2
20260509131543 55 203 5.0 10.0 0.00 0.00 0.00 91 1008.1
20260509131026 55 227 6.0 9.0 0.00 0.00 0.00 92 1008.2